{"data":{"norad_id":58767,"intl_designator":"2024-011C","name":"STARLINK-31140","alt_names":[],"object_type":"PAYLOAD","status":"ACTIVE","operator":null,"country":"US","launch_date":"2024-01-14","launch_site_code":"AFWTR","launch_vehicle":null,"mission":null,"orbit_class":"UNKNOWN","rcs_meters":null,"size_class":null,"mass_kg":null,"dimensions":null,"purposes":["comms"],"wikipedia_slug":null,"has_3d_model":false,"image_url":null,"decayed_at":null,"tle_current":{"epoch":"2026-09-19T06:56:39.747552Z","epoch_age_seconds":257232,"freshness":"STALE","line1":"1 58767U 24011C   26262.28934893  .00000600  00000+0  28888-4 0  9998","line2":"2 58767  53.1624 191.4233 0001219  79.6102 280.5038 15.34393519149954","mean_motion":15.34393519,"eccentricity":0.0001219,"inclination_deg":53.1624,"raan_deg":191.4233,"arg_perigee_deg":79.6102,"mean_anomaly_deg":280.5038,"bstar":2.8888e-5,"rev_number":14995,"period_min":93.848154477248,"perigee_km":461.88860239928,"apogee_km":463.55640394615,"semimajor_km":6840.8595031727,"source":"CELESTRAK","updated_at":"2026-09-21T09:00:33.957032Z"}}}